• Join FlightAware (Why Join?)
  • Login
  • US Flag 
11:03AM EST


 

Airport Tracker/Info


-or-


 

Live Flight TrackerFlight Track Log ✈ EGF4090 ✈ 07-May-2013 ✈ KORD - KLIT

Flight Track Log - Related Links

Times and Time Zones

All times are in EDT time to prevent confusion due to time zone crossing. See the EGF4090 flight status page for this flight to view local times or setup timezone preferences in your user account.

Time Position Orientation Groundspeed Altitude Reporting Facility
EDT Latitude Longitude Course Direction KTS MPH feet Rate Location/Type
11:02PM 41.8800 -87.9006 194° South 209 241 3,300  Level Chicago Center
11:03PM 41.7031 -88.0918 192° South  Level Estimated
11:03PM 41.8056 -87.9144 188° South 255 293 5,500  Level Chicago Center
11:04PM 41.6101 -88.1531 189° South  Level Estimated
11:04PM 41.7311 -87.9361 192° South 276 318 8,000  Level Chicago Center
11:05PM 41.5185 -88.0884 152° Southeast  Level FlightAware Approximate
11:05PM 41.6539 -87.9592 193° South 284 327 10,200  Level Chicago Center
11:06PM 41.4261 -88.1509 194° South  Level Estimated
11:06PM 41.5772 -87.9806 192° South 283 326 12,700  Level Chicago Center
11:07PM 41.3359 -88.2118 194° South  Level Estimated
11:07PM 41.5014 -88.0219 202° Southwest 306 352 13,900  Level Chicago Center
11:08PM 41.4244 -88.0806 210° Southwest 322 371 15,000 1,561 Climbing Chicago Center
11:09PM 41.3264 -88.1439 206° Southwest 342 394 17,100 1,951 Climbing Chicago Center
11:10PM 41.2444 -88.2006 207° Southwest 337 388 19,000 1,918 Climbing Chicago Center
11:11PM 41.1639 -88.2553 207° Southwest 328 377 21,000 1,983 Climbing Chicago Center
11:12PM 41.0844 -88.3092 207° Southwest 324 373 23,000 1,934 Climbing Chicago Center
11:13PM 41.0067 -88.3628 207° Southwest 318 366 24,900 1,525 Climbing Chicago Center
11:14PM 40.9286 -88.4147 207° Southwest 316 364 26,100 1,131 Climbing Chicago Center
11:15PM 40.8472 -88.4703 207° Southwest 329 379 27,200 1,131 Climbing Chicago Center
11:16PM 40.7450 -88.5400 207° Southwest 345 397 28,400 1,131 Climbing Chicago Center
11:17PM 40.6561 -88.5992 207° Southwest 356 410 29,500 1,033 Climbing Chicago Center
11:18PM 40.5658 -88.6589 207° Southwest 366 421 30,500 1,033 Climbing Chicago Center
11:19PM 40.4736 -88.7203 207° Southwest 372 428 31,600 738 Climbing Chicago Center
11:20PM 40.3808 -88.7808 206° Southwest 379 436 32,000 197 Climbing Chicago Center
11:21PM 40.2775 -88.8511 207° Southwest 406 467 32,000  Level Chicago Center
11:22PM 40.1686 -88.9228 207° Southwest 428 493 32,000  Level Chicago Center
11:23PM 40.0658 -88.9906 207° Southwest 419 482 32,000  Level Chicago Center
11:24PM 39.9647 -89.0561 206° Southwest 408 470 32,000  Level Chicago Center
11:25PM 39.8608 -89.1244 207° Southwest 414 476 32,000  Level Chicago Center
11:26PM 39.7569 -89.1919 207° Southwest 415 478 32,000  Level Chicago Center
11:27PM 39.6519 -89.2597 206° Southwest 420 483 32,000  Level Chicago Center
11:28PM 39.5483 -89.3261 206° Southwest 414 476 32,000  Level Chicago Center
11:29PM 39.4433 -89.3950 207° Southwest 421 484 32,000  Level Chicago Center
11:30PM 39.3383 -89.4597 205° Southwest 416 479 32,000  Level Chicago Center
11:31PM 39.2128 -89.5403 206° Southwest 417 480 32,000  Level Chicago Center
11:32PM 39.1200 -89.6011 207° Southwest 420 483 32,000  Level Chicago Center
11:33PM 38.9983 -89.6806 207° Southwest 420 483 32,000  Level Kansas City Center
11:34PM 38.8964 -89.7450 206° Southwest 420 483 32,000  Level Kansas City Center
11:35PM 38.7900 -89.8103 206° Southwest 423 487 32,000  Level Kansas City Center
11:36PM 38.6850 -89.8786 207° Southwest 421 484 32,000  Level Kansas City Center
11:37PM 38.5789 -89.9431 205° Southwest 419 482 32,000  Level Kansas City Center
11:38PM 38.4722 -90.0103 206° Southwest 421 484 32,000  Level Kansas City Center
11:39PM 38.3647 -90.0778 206° Southwest 426 490 32,000  Level Kansas City Center
11:41PM 38.2569 -90.1439 206° Southwest 427 491 32,000  Level Kansas City Center
11:42PM 38.1508 -90.2100 206° Southwest 424 488 32,000  Level Kansas City Center
11:43PM 38.0422 -90.2764 206° Southwest 430 495 32,000  Level Kansas City Center
11:44PM 37.9356 -90.3433 206° Southwest 429 494 32,000  Level Kansas City Center
11:45PM 37.8269 -90.4100 206° Southwest 432 497 32,000  Level Kansas City Center
11:46PM 37.7183 -90.4758 206° Southwest 433 498 32,000  Level Kansas City Center
11:47PM 37.6108 -90.5417 206° Southwest 430 495 32,000  Level Kansas City Center
11:48PM 37.4825 -90.6239 207° Southwest 431 496 32,000  Level Kansas City Center
11:49PM 37.3739 -90.6878 205° Southwest 430 495 32,000  Level Kansas City Center
11:50PM 37.2708 -90.7531 207° Southwest 429 494 32,000  Level Memphis Center
11:51PM 37.1644 -90.8125 204° Southwest 429 494 32,000  Level Memphis Center
11:52PM 37.0558 -90.8794 206° Southwest 429 494 32,000  Level Memphis Center
11:53PM 36.9494 -90.9436 206° Southwest 435 501 32,000  Level Memphis Center
11:54PM 36.8406 -91.0075 205° Southwest 430 495 32,000  Level Memphis Center
11:55PM 36.7339 -91.0714 206° Southwest 425 489 32,000  Level Memphis Center
11:56PM 36.6189 -91.1378 205° Southwest 425 489 32,000  Level Memphis Center
11:57PM 36.5122 -91.2011 206° Southwest 430 495 32,000 -250 Level Memphis Center
11:58PM 36.4119 -91.2594 205° Southwest 435 501 31,500 -700 Descending Memphis Center
11:59PM 36.3031 -91.3228 205° Southwest 435 501 30,600 -1,250 Descending Memphis Center
12:00AM 36.1897 -91.3908 206° Southwest 441 507 29,000 -2,050 Descending Memphis Center
12:01AM 36.0808 -91.4536 205° Southwest 447 514 26,500 -2,500 Descending Memphis Center
12:02AM 35.9678 -91.5189 205° Southwest 447 514 24,000 -2,950 Descending Memphis Center
12:03AM 35.8481 -91.5864 205° Southwest 441 507 20,600 -3,100 Descending Memphis Center
12:04AM 35.7475 -91.6486 207° Southwest 433 498 17,800 -2,600 Descending Memphis Center
12:05AM 35.6572 -91.6983 204° Southwest 411 473 15,400 -2,100 Descending Memphis Center
12:06AM 35.5586 -91.7556 205° Southwest 396 456 13,600 -1,737 Descending Memphis Center
12:07AM 35.4661 -91.8100 206° Southwest 378 435 12,100 -1,582 Descending Memphis Center
12:07AM 35.4011 -91.8472 205° Southwest 380 437 11,200 -1,182 Descending Memphis Center
12:08AM 35.3675 -91.8644 203° Southwest 384 442 10,800 -1,000 Descending Memphis Center
12:08AM 35.3192 -91.8889 202° Southwest 368 423 10,300 -800 Descending Memphis Center
12:09AM 35.2794 -91.9136 207° Southwest 376 433 10,000 -295 Descending Memphis Center
12:09AM 35.2289 -91.9433 206° Southwest 341 392 10,000  Level Memphis Center
12:10AM 35.1931 -91.9656 207° Southwest 363 418 10,000  Level Memphis Center
12:10AM 35.1408 -91.9747 188° South 346 398 10,000  Level Memphis Center
12:11AM 35.0950 -91.9814 187° South 352 405 10,000 -393 Level Memphis Center
12:11AM 35.0467 -91.9906 189° South 314 361 9,600 -1,300 Descending Memphis Center
12:12AM 35.0156 -91.9950 187° South 326 375 8,700 -2,400 Descending Memphis Center
12:12AM 34.9714 -92.0042 190° South 275 316 7,200 -2,300 Descending Memphis Center
12:13AM 34.9381 -92.0086 186° South 301 346 6,400 -1,967 Descending Memphis Center
12:13AM 34.8942 -92.0181 190° South 265 305 5,200 -2,571 Descending Memphis Center